Upstream stations:
Downstream station:
SHEF ID: SDFO2 Deep Fork River at Stroud
STATION TYPE:
PRECIP STAGE RIV-FLOW VOLTAGE BAT-LOAD
in ft cfs volt volt
Ccp-Rev Ccp-Rev Ccp-Rev Ccp-Rev Ccp-Rev
(US/Central)
04/02 00:00 0.04 12.34 227 12.81 12.73
04/02 01:00 0.00 12.32 226 12.81 12.73
04/02 02:00 0.00 12.30 224 12.81 12.65
04/02 03:00 0.01 12.28 223 12.81 12.65
04/02 04:00 0.03 12.27 222 12.73 12.65
04/02 05:00 0.00 12.26 222 12.73 12.65
04/02 06:00 0.00 12.25 221 12.73 12.65
04/02 07:00 0.00 12.24 220 12.73 12.65
04/02 08:00 0.00 12.23 220 12.73 12.65
04/02 09:00 0.00 12.22 219 12.89 12.73
04/02 10:00 0.00 12.21 218 13.21 13.05
04/02 11:00 0.00 12.21 218 13.53 13.29
04/02 12:00 0.00 12.20 218 13.84 13.21
04/02 13:00 0.00 12.19 217 13.60 13.05
04/02 14:00 0.00 12.18 216 14.24 13.05
04/02 15:00 0.00 12.17 216 13.68 12.97
04/02 16:00 0.00 12.16 215 13.37 12.97
04/02 17:00 0.00 12.16 215 13.60 12.97
04/02 18:00 0.00 12.16 215 13.21 12.97
04/02 19:00 0.00 12.16 215 12.97 12.89
04/02 20:00 0.00 12.16 215 12.89 12.81
04/02 21:00 0.00 12.16 215 12.89 12.81
04/02 22:00 0.00 12.17 216 12.89 12.73
04/02 23:00 ---- ---- ---- ---- ----